Location: Helsinki
(60.1699°N, 24.9384°E)
Time: 17:45:08
(UTC+02:00)

S-56A Canister/Altair - Pass Details

Date: 01 November 2020
Orbit: 633 x 2500 km, 38.9° (Epoch: 29 November)

Event Time Altitude Azimuth Distance (km) Brightness Sun altitude
Rises 09:04:15 0° 243° (WSW) 3,803 10.9 7.0°
Reaches altitude 10° 09:08:44 10° 214° (SW) 3,229 10.9 7.4°
Maximum altitude 09:11:44 12° 192° (SSW) 3,297 11.4 7.7°
Drops below altitude 10° 09:15:07 10° 171° (S) 3,765 12.2 7.9°
Sets 09:21:32 0° 147° (SSE) 5,246 14.1 8.4°
